User: anonymous   Login
Location: Unspecified
(50.1700°N, 6.8600°E)
Time: 04:31:57
(UTC+00:00)
Language:

Cosmos 1484 Rocket - Orbit

View from above orbital plane
View from above orbital plane
View from above satellite
View from above satellite

Ground track
Ground track

The orbit data is extracted from the following two-line orbital elements,

1 14208U 83075B   19322.53737978  .00000226  00000-0  17155-4 0  9997
2 14208  97.3773 308.4083 0037807 321.0192  38.8313 15.11005554981025
Epoch (UTC): 18 November 2019 12:53:49
Eccentricity: 0.0037807
inclination: 97.3773°
perigee height: 507 km
apogee height: 559 km
right ascension of ascending node: 308.4083°
argument of perigee: 321.0192°
revolutions per day: 15.11005554
mean anomaly at epoch: 38.8313°
orbit number at epoch: 98102

The dashed part of the orbit path shows where the satellite is in the earth's shadow,  

DLR